This is the latest recevied weather packets stored in our database for station/object WA6ODQ-13. If no packets are shown the sender has not sent any weather packets the latest 10 day(s).
| Time | Temp. | Humidity | Pressure | Rain* | Wind** | Luminosity | Snow |
|---|---|---|---|---|---|---|---|
| 1788036248 | 27.78° C | 43% | 1011.2 hPa | 0 mm | - | 672 W/m² | - |
| 1788035938 | 28.33° C | 44% | 1011.2 hPa | 0 mm | - | 674 W/m² | - |
| 1788035637 | 27.78° C | 43% | 1011.2 hPa | 0 mm | - | 677 W/m² | - |
| 1788035333 | 27.78° C | 45% | 1011.3 hPa | 0 mm | - | 680 W/m² | - |
| 1788035023 | 27.78° C | 45% | 1011.1 hPa | 0 mm | - | 682 W/m² | - |
| 1788034719 | 27.22° C | 46% | 1011.4 hPa | 0 mm | - | 683 W/m² | - |
| 1788034415 | 27.22° C | 45% | 1011.5 hPa | 0 mm | - | 683 W/m² | - |
| 1788034111 | 27.22° C | 46% | 1011.5 hPa | 0 mm | - | 684 W/m² | - |
| 1788033820 | 27.22° C | 46% | 1011.7 hPa | 0 mm | - | 684 W/m² | - |
| 1788033504 | 27.22° C | 46% | 1011.7 hPa | 0 mm | - | 683 W/m² | - |
| 1788033199 | 27.22° C | 47% | 1011.9 hPa | 0 mm | - | 683 W/m² | - |
| 1788032895 | 27.78° C | 46% | 1011.9 hPa | 0 mm | - | 682 W/m² | - |
| 1788032594 | 27.22° C | 47% | 1011.9 hPa | 0 mm | - | 680 W/m² | - |
| 1788032289 | 27.22° C | 47% | 1012 hPa | 0 mm | - | 677 W/m² | - |
| 1788031985 | 27.22° C | 47% | 1012.2 hPa | 0 mm | - | 675 W/m² | - |
| 1788031679 | 27.78° C | 48% | 1011.8 hPa | 0 mm | - | 672 W/m² | - |
| 1788031379 | 26.67° C | 47% | 1012 hPa | 0 mm | - | 668 W/m² | - |
| 1788031074 | 26.67° C | 48% | 1012.4 hPa | 0 mm | - | 665 W/m² | - |
| 1788030763 | 26.11° C | 50% | 1012.4 hPa | 0 mm | - | 662 W/m² | - |
| 1788030462 | 25.56° C | 52% | 1012.4 hPa | 0 mm | - | 657 W/m² | - |
| 1788030158 | 25.56° C | 51% | 1012.6 hPa | 0 mm | - | 652 W/m² | - |
| 1788029857 | 25° C | 53% | 1012.7 hPa | 0 mm | - | 646 W/m² | - |
| 1788029553 | 25.56° C | 52% | 1012.6 hPa | 0 mm | - | 641 W/m² | - |
| 1788029252 | 25° C | 53% | 1012.9 hPa | 0 mm | - | 635 W/m² | - |
| 1788028947 | 24.44° C | 55% | 1012.8 hPa | 0 mm | - | 628 W/m² | - |
* Rain latest hour (hover to see other rain measurements)
** Current wind speed in m/s (hover to see current wind gust speed)